Home   Weather   Vernier   Past weeks

Flag for Switzerland Past Weather in Vernier, Geneva, Switzerland — Yesterday and Last 2 Weeks

41 °F

Passing clouds.

Feels Like: 41 °F
Forecast: 34 / 55 °F
Wind: 2 mph from Northwest

Location: Geneva Cointrin Airport

Current Time: Oct 22, 2016 at 11:42:56 PM

Latest Report: Oct 22, 2016 at 11:20 PM

Visibility: N/A

Pressure: 29.92 "Hg

Humidity: 93%

Dew Point: 39 °F

Location of VernierLocation

Past Weather in Vernier — Graph


Vernier Temperature Yesterday

Maximum temperature yesterday: 55 °F (at 2:20 PM)
Minimum temperature yesterday: 36 °F (at 2:50 AM)
Average temperature yesterday: 44 °F

High & Low Weather Summary for the Past Weeks

High64 °F (Oct 15, 2:50 PM)100% (Oct 14, 12:20 AM)30.27 "Hg (Oct 14, 12:20 AM)
Low32 °F (Oct 22, 5:50 AM)51% (Oct 11, 2:20 PM)29.65 "Hg (Oct 14, 3:50 PM)
Average48 °F83%30.05 "Hg
* Reported Oct 7 10:20 PM — Oct 22 10:20 PM, Vernier, Weather by CustomWeather, © 2016

Note: Actual official high and low records may vary slightly from our data, if they occured in-between our weather recording intervals... More about our weather records


Vernier Weather History for the Previous 24 Hours

Scroll right to see more
Time TempWeatherWind HumidityBarometerVisibility
10:20 PM
Sat, Oct 22
39 °FPassing clouds.1 mph100%29.92 "HgN/A
9:50 PM41 °FPassing clouds.2 mph93%29.92 "HgN/A
9:20 PM41 °FClear.2 mph93%29.92 "Hg10 mi
8:50 PM43 °FClear.2 mph87%29.92 "Hg10 mi
8:20 PM43 °FClear.1 mph93%29.92 "Hg10 mi
7:50 PM45 °FClear.1 mph87%29.92 "Hg10 mi
7:20 PM46 °FClear.2 mph82%29.92 "Hg10 mi
6:50 PM46 °FClear.3 mph82%29.92 "Hg10 mi
6:20 PM52 °FPassing clouds.5 mph67%29.92 "HgN/A
5:50 PM54 °FSunny.5 mph63%29.92 "Hg10 mi
5:20 PM54 °FPassing clouds.2 mph58%29.92 "HgN/A
4:50 PM55 °FScattered clouds.2 mph55%29.92 "HgN/A
4:20 PM54 °FScattered clouds.5 mph58%29.92 "HgN/A
3:50 PM54 °FPassing clouds.3 mph58%29.92 "HgN/A
3:20 PM54 °FPassing clouds.5 mph63%29.92 "HgN/A
2:50 PM52 °FPassing clouds.5 mph67%29.95 "HgN/A
2:20 PM52 °FPassing clouds.7 mph67%29.95 "HgN/A
1:50 PM52 °FPassing clouds.5 mph62%29.95 "HgN/A
1:20 PM50 °FCool.3 mph67%29.95 "HgN/A
12:50 PM50 °FPassing clouds.5 mph67%29.98 "HgN/A
12:20 PM48 °FPassing clouds.2 mph71%29.98 "HgN/A
11:50 AM48 °FPassing clouds.2 mph71%29.98 "HgN/A
11:20 AM48 °FPassing clouds.2 mph71%29.98 "HgN/A
10:50 AM45 °FPassing clouds.2 mph81%29.98 "HgN/A
10:20 AM45 °FSunny.1 mph76%29.98 "Hg10 mi
9:50 AM39 °FSunny.1 mph87%29.98 "Hg10 mi
9:20 AM36 °FSunny.2 mph93%29.98 "Hg10 mi
8:50 AM34 °FSunny.2 mph93%29.98 "Hg10 mi
8:20 AM32 °FSunny.2 mph100%29.98 "Hg10 mi
7:50 AM32 °FPassing clouds.2 mph100%29.98 "HgN/A
7:20 AM32 °FPassing clouds.1 mph100%29.98 "HgN/A
6:50 AM32 °FClear.3 mph100%29.98 "Hg10 mi
6:20 AM32 °FClear.1 mph100%29.98 "Hg10 mi
5:50 AM32 °FClear.1 mph100%29.98 "Hg10 mi
5:20 AM34 °FChilly.2 mph93%29.98 "HgN/A
4:50 AM34 °FChilly.2 mph93%29.98 "HgN/A
4:20 AM34 °FChilly.2 mph100%29.98 "HgN/A
3:50 AM34 °FChilly.1 mph93%29.98 "HgN/A
3:20 AM34 °FChilly.1 mph100%29.98 "HgN/A
2:50 AM36 °FChilly.1 mph93%30.01 "HgN/A
2:20 AM36 °FChilly.2 mph93%30.01 "HgN/A
1:50 AM36 °FChilly.2 mph100%30.01 "HgN/A
1:20 AM37 °FChilly.3 mph93%30.01 "HgN/A
12:50 AM37 °FClear.2 mph93%30.01 "Hg10 mi
12:20 AM37 °FClear.2 mph93%30.01 "Hg10 mi
11:50 PM
Fri, Oct 21
39 °FClear.1 mph87%30.04 "HgN/A
11:20 PM39 °FClear.2 mph93%30.04 "Hg10 mi
Weather by CustomWeather, © 2016

See weather overviewHow to use our weather pages